CZ-3C DEB, 40203

Orbit data source: Space-Track

CZ-3C DEB, 40203 is space debris in HEO originally from a launch on Fri, 24 Feb 2012 UTC launched from the Xichang Space Center, China (XSC). Debris objects in space refer to the collection of defunct objects orbiting the Earth. Examples of debris include non-operational satellites, rocket bodies, and fragments generated from explosions, collisions, or faulty payload assembly.

Loading next visibility...
Identifier
40203, 2012-008N
Orbit
HEO
Country
Flag of CNCN / PRC
Related business
Manufacturer
CALT
Mission
Spacecraft
Bus & Motor
Unknown
Mass
Unknown
Launch date (UTC)
2012-02-24 (14 years ago)
Launch vehicle
Unknown
Launch site
Xichang Space Center, China (XSC)
Object type
Payload
Rocket body
Debris
Shape & HBR
Unknown shape, 0.3 m
Radar Cross Section
Medium (>0.1 m² and <1 m²)

Expand to show TLE details & history
Last TLE update: 2 days ago

TLE from 2 days ago
0 CZ-3C DEB
1 40203U 12008N   26171.20298375  .00000013  00000-0  53021-3 0  9991
2 40203  20.4536 195.3263 7110647 170.2830 219.6440  2.35055999107468
Epoch: 2026-06-20T04:52Z
TLE epoch observation values (Epoch: 2026-06-20T04:52:17.795Z)
Latitude
-0.00005°
Longitude
-146.13348°
Altitude
33,087.317 km
Speed
1.876 km/s
True Right ascension
13h 01m 26s
True Declination
0° 00' 00"
Sunlit
Object was in daylight at epoch
Visualization orbit readout
Latitude
Unknown
Longitude
Unknown
Altitude
Unknown
Speed
Unknown
Apparent Right ascension
Unknown
Apparent Declination
Unknown
Sunlit
N/A
Visualization observer readout
Local Sidereal Time
02:13:20
Azimuth
Unknown
Elevation
Unknown
Doppler factor
Unknown
Orbital elements
Apogee altitude
34,513.363 km
Perigee altitude
526.919 km
Semi-major axis
23,898.278 km
Eccentricity
0.71106
Inclination
20.4536°
RAAN
195.3263°
Arg. of periapsis
170.283°
True anomaly
189.74466°
Mean anomaly
219.644°
Eccentric anomaly
203.43861°
Mean motion
0.58748 °/min
Orbital period
612.79 mins
BSTAR
0.00053021
Loading maneuver chart data...
Computing Atmospheric mass density...
Loading historical data...
Loading historical data...
Loading historical data...
Loading historical data...
Loading historical data...
Loading historical data...
Loading historical data...

Documentation

Showing up to 5 results
|